map of RBA home
Great Circle Mapper logo
RBA - Airport
Location
City:  Rabat, Morocco
Name:Rabat-Salé
ICAO / IATA:GMME / RBA

Details
Type:Airport (Aerodrome, Airfield)
Use:Public/Civil, Military, International (customs port of entry)
Latitude:34°03'05"N (34.051467)
Longitude:6°45'05"W (-6.751518)
Datum:WGS 1984
Elevation:276 ft (84 m)
Variation:1.9°W (WMM2010 magnetic declination)
Runways:1
Longest:11483 × 148 ft (3500 × 45 m), paved

Time
Time Zone:UTC+0 (DST+1)
Local Time:

Weather
METAR:GMME 241530Z 21012KT 8000 FEW015 SCT020 19/11 Q1015 NOSIG
TAF:GMME 241100Z 2412/2518 20010KT 9999 SCT015 BKN020
TEMPO 2414/2418 4000 SHRA SCT010 BKN015 FEW020CB
BECMG 2419/2422 14005KT SCT015 SCT020

Related Locations
Nearby:
Farthest:KAT: 12360 mi / 19891 km
Kaitaia, NZ

Find:

   beyond  
but within

Other Information
Maps:
NOTAMs:
Links:
Sources:

  
flag of Morocco   

Sectional Chart

Flight Planning
at skyvector.com

Satellite Image

Google Maps Satellite View

 

Copyright © 2004-2014 Karl L. Swartz. All rights reserved.
The Great Circle Mapper name and logo are trademarks of the Great Circle Mapper.
All other trademarks mentioned herein belong to their respective owners.
Please see credits for attibutions and further copyright information.

  Follow gcmap on Facebook Follow gcmap on Twitter

hCard Microformat

Geo Microformat